Temperature
2 1 1 0 -0 -1 -2 -4 -5 -4 -3 -3 -4 -4 -5 -6 -6 -7 -7 -7 -7 -7 -7 -7 -7 -7 -6 -6 -6 -6 -5 -5 -5 -4 -4 -4 -3 -3
1 1 -0 -1 -1 -2 -3 -4 -5 -5 -5 -5 -5 -5 -6 -7 -7 -7 -7 -7 -7 -7 -7 -7 -7 -7 -7 -7 -7 -6 -6 -6 -5 -5 -5 -4 -4 -3
0 -0 -1 -2 -2 -3 -4 -5 -6 -6 -6 -6 -6 -6 -7 -7 -7 -7 -7 -7 -7 -7 -7 -7 -8 -8 -7 -7 -7 -7 -6 -6 -6 -6 -5 -5 -4 -4
-0 -1 -2 -3 -3 -4 -5 -6 -6 -7 -7 -7 -7 -7 -7 -7 -7 -7 -7 -7 -8 -8 -8 -8 -8 -8 -7 -7 -7 -7 -7 -7 -6 -6 -6 -6 -5 -5
-1 -2 -2 -3 -4 -5 -6 -7 -7 -7 -8 -8 -8 -7 -7 -7 -7 -7 -7 -8 -8 -8 -8 -8 -8 -8 -8 -8 -7 -7 -7 -7 -7 -7 -7 -7 -6 -6
-2 -3 -3 -4 -5 -6 -7 -7 -8 -8 -8 -8 -8 -7 -7 -7 -7 -8 -8 -8 -8 -8 -8 -8 -8 -8 -8 -8 -7 -7 -7 -8 -8 -8 -7 -7 -7 -7
-3 -4 -5 -5 -6 -7 -8 -8 -8 -8 -8 -8 -8 -8 -8 -8 -8 -8 -9 -9 -9 -8 -8 -8 -8 -8 -8 -8 -7 -7 -8 -8 -8 -8 -8 -7 -7 -7
-4 -5 -6 -6 -7 -8 -8 -9 -9 -9 -8 -8 -8 -8 -8 -8 -9 -9 -9 -9 -9 -8 -9 -8 -8 -8 -8 -8 -7 -7 -7 -7 -7 -7 -7 -7 -7 -7
-5 -6 -7 -7 -8 -8 -9 -9 -9 -8 -8 -9 -9 -9 -9 -9 -9 -9 -9 -9 -9 -9 -9 -9 -8 -8 -8 -7 -7 -6 -6 -6 -6 -6 -6 -7 -7 -6
-6 -7 -7 -8 -9 -9 -9 -9 -9 -9 -9 -9 -9 -9 -10 -9 -9 -10 -10 -10 -10 -9 -9 -9 -8 -8 -8 -7 -5 -4 -5 -5 -5 -5 -6 -6 -6 -6
-7 -7 -8 -9 -9 -9 -9 -9 -9 -9 -9 -9 -10 -9 -9 -9 -9 -10 -10 -10 -10 -9 -9 -10 -9 -9 -8 -7 -4 -4 -4 -4 -4 -5 -5 -5 -5 -5
-8 -8 -8 -9 -9 -9 -9 -9 -9 -9 -10 -10 -9 -9 -9 -9 -9 -10 -10 -10 -11 -11 -9 -10 -10 -11 -10 -7 -5 -4 -4 -4 -4 -5 -5 -5 -5 -5
-8 -9 -9 -9 -9 -9 -9 -10 -10 -10 -10 -10 -9 -9 -9 -9 -8 -8 -9 -10 -11 -10 -8 -10 -10 -10 -11 -9 -6 -4 -4 -5 -5 -5 -4 -4 -4 -4
-9 -9 -9 -10 -10 -10 -10 -10 -10 -10 -10 -9 -9 -9 -9 -8 -8 -8 -7 -8 -8 -8 -8 -9 -9 -9 -10 -10 -9 -5 -5 -5 -5 -5 -5 -5 -4 -4
-10 -10 -10 -10 -10 -9 -9 -9 -10 -10 -10 -10 -10 -9 -8 -8 -8 -7 -7 -7 -7 -7 -7 -8 -8 -9 -9 -9 -9 -7 -6 -5 -5 -5 -5 -4 -4 -3
-10 -10 -10 -10 -9 -9 -9 -9 -9 -10 -10 -10 -9 -9 -8 -8 -8 -8 -8 -8 -7 -6 -6 -7 -8 -8 -8 -7 -7 -6 -6 -6 -6 -5 -5 -4 -3 -3
-10 -10 -10 -10 -10 -10 -10 -10 -9 -9 -9 -9 -9 -9 -8 -8 -8 -8 -8 -8 -8 -8 -7 -6 -7 -7 -7 -6 -5 -5 -6 -6 -5 -5 -5 -4 -3 -3
-11 -11 -11 -10 -10 -10 -10 -9 -9 -9 -9 -9 -9 -9 -9 -8 -8 -8 -8 -9 -9 -8 -8 -8 -8 -7 -6 -5 -5 -5 -6 -6 -5 -5 -4 -4 -3 -3
-10 -10 -10 -10 -10 -10 -10 -10 -9 -9 -9 -9 -8 -8 -8 -8 -8 -8 -8 -8 -8 -8 -8 -8 -8 -8 -7 -7 -5 -4 -5 -6 -5 -5 -5 -4 -4 -3
-10 -11 -11 -10 -10 -10 -10 -10 -9 -9 -8 -8 -8 -8 -8 -8 -8 -8 -8 -8 -9 -9 -8 -8 -8 -8 -8 -7 -7 -5 -5 -5 -5 -5 -5 -4 -4 -3
-11 -11 -10 -10 -10 -10 -10 -9 -9 -8 -8 -8 -8 -8 -8 -8 -8 -8 -8 -8 -8 -8 -9 -8 -7 -7 -6 -6 -6 -6 -5 -5 -5 -5 -5 -5 -4 -3
-11 -10 -10 -10 -10 -9 -9 -9 -8 -8 -8 -8 -8 -8 -8 -8 -8 -8 -8 -8 -8 -8 -8 -8 -7 -6 -6 -6 -6 -6 -5 -5 -4 -4 -5 -5 -4 -4
-11 -10 -10 -9 -9 -9 -9 -8 -8 -8 -8 -8 -8 -8 -8 -8 -8 -8 -8 -8 -8 -8 -8 -8 -7 -6 -6 -6 -6 -6 -5 -5 -5 -5 -5 -4 -4 -4
Wind_Speed
4 6 6 6 6 7 8 9 11 14 17 15 10 10 14 18 21 22 24 28 31 33 35 35 35 36 36 36 36 36 36 36 35 36 36 37 37 38
4 6 7 6 7 8 9 10 11 15 17 13 15 16 16 17 23 24 24 29 31 31 32 34 35 36 36 37 36 36 35 35 36 36 36 37 37 37
6 7 8 9 8 9 9 10 12 13 18 19 16 17 20 20 19 21 22 23 23 29 31 33 35 35 35 36 36 35 35 35 35 36 36 36 36 37
7 8 9 8 11 10 10 12 12 14 17 22 19 18 21 21 20 21 18 19 21 27 31 33 34 34 35 35 35 35 35 35 35 35 35 36 36 37
8 9 10 11 12 11 12 13 13 14 15 18 20 18 18 17 20 20 20 18 19 22 27 29 31 33 34 34 35 35 35 35 34 34 35 35 36 36
9 9 10 11 13 14 13 14 15 16 17 17 18 18 18 19 18 18 18 17 17 18 22 24 27 30 32 33 33 34 34 34 34 34 34 34 35 35
10 10 11 13 16 15 14 15 16 16 16 16 18 18 18 18 18 17 18 19 20 18 19 18 18 19 21 25 28 30 31 32 33 34 34 34 35 35
11 12 12 13 15 19 21 21 21 19 18 18 17 19 22 21 19 18 19 20 20 16 18 20 19 19 19 18 26 32 33 34 34 34 34 34 35 35
12 12 11 12 16 15 18 21 22 24 23 20 21 21 21 20 21 22 21 21 21 19 19 22 19 20 19 19 30 32 33 33 32 32 32 33 34 35
12 13 14 15 14 17 18 19 19 18 19 17 18 20 20 20 20 20 21 21 20 17 17 20 20 19 19 19 28 30 30 29 30 31 32 32 33 34
12 13 14 15 19 22 20 19 19 18 18 20 23 24 27 27 22 16 16 16 18 18 15 13 16 18 19 18 18 23 26 28 30 30 31 31 32 31
12 13 16 17 20 23 19 18 19 18 17 18 19 19 18 19 20 15 13 14 16 12 10 9 14 13 11 11 13 16 19 24 28 29 29 30 31 21
12 12 12 19 22 24 22 17 18 19 18 16 15 15 14 13 13 13 12 12 14 14 13 11 13 14 11 12 16 17 16 16 18 21 24 28 29 24
13 12 14 22 24 24 19 18 21 19 12 12 12 13 13 13 13 15 16 16 15 18 19 18 14 16 16 19 17 15 16 17 17 16 16 22 24 26
13 18 21 23 21 17 16 19 16 11 10 11 12 13 13 14 15 14 16 15 17 17 16 17 16 16 16 17 17 19 19 17 13 14 17 17 15 14
13 17 20 19 16 15 15 12 9 10 11 12 13 13 14 13 13 13 13 14 13 15 13 14 15 17 16 18 17 18 16 12 15 18 17 16 14 10
15 12 11 11 10 10 10 11 10 10 11 11 12 13 13 13 13 12 12 13 13 15 16 14 13 13 15 17 16 15 14 15 16 17 17 15 13 9
14 10 10 10 11 11 12 12 12 11 11 12 12 12 13 13 14 13 12 12 13 14 15 15 15 15 12 8 10 11 13 14 15 17 16 14 11 10
9 8 9 10 11 11 11 12 13 13 12 12 12 12 12 13 13 13 13 13 13 14 14 14 13 12 14 15 8 7 11 15 14 15 14 14 12 11
7 9 10 10 11 11 12 12 13 13 12 12 12 12 12 12 13 13 13 14 14 14 14 13 12 12 12 11 10 12 15 14 13 13 13 12 11 11
9 10 10 11 11 11 12 12 13 13 13 13 12 13 12 12 12 13 13 17 15 13 14 14 14 17 12 9 10 11 10 12 14 12 11 11 12 11
10 11 11 11 11 12 12 12 12 13 13 12 12 12 12 12 13 14 13 13 13 13 14 13 13 12 9 9 12 13 13 13 14 15 13 14 10 9
11 11 11 12 11 11 11 12 14 13 12 12 12 12 12 12 12 12 13 13 12 13 13 13 12 10 10 10 11 12 14 14 12 11 11 18 21 20
Wind_Direction
281 282 282 285 283 283 283 285 291 299 301 302 299 301 301 298 297 295 294 294 295 295 294 294 295 294 294 293 291 289 287 285 282 280 278 275 273 271
288 289 291 290 289 286 284 283 281 286 290 293 300 301 303 298 295 295 293 293 292 292 292 293 293 293 293 292 290 288 286 284 282 279 277 275 272 270
289 291 294 296 294 293 290 286 284 285 289 295 299 302 302 300 299 298 296 295 294 294 295 295 294 293 292 291 290 288 286 284 282 280 278 275 273 271
294 294 296 299 296 294 292 289 288 288 290 296 299 302 301 302 300 300 300 298 296 296 296 295 294 293 292 290 289 287 286 284 282 280 278 276 274 272
292 294 297 300 298 298 297 293 291 291 290 293 298 301 301 302 304 302 302 301 299 298 297 295 294 292 291 290 289 288 286 285 283 280 278 275 273 271
289 289 292 295 298 300 297 295 295 296 295 295 296 300 303 305 306 306 306 305 302 302 297 295 294 294 292 290 288 286 285 283 281 279 277 274 271 268
291 289 289 292 294 295 295 298 300 298 296 296 297 302 304 307 308 309 306 306 302 302 301 300 299 295 294 290 287 285 284 283 281 279 276 273 270 266
295 297 297 294 295 298 299 299 296 294 295 296 298 299 301 304 307 306 305 305 305 308 305 301 300 295 294 291 290 290 289 287 285 281 278 274 270 267
298 299 300 299 303 302 301 299 295 292 291 293 294 295 299 303 303 303 303 301 299 301 302 298 300 297 296 293 294 292 291 289 286 283 280 276 272 268
297 300 301 303 305 306 304 301 299 297 295 293 292 293 293 295 297 298 299 297 294 294 295 295 299 299 301 298 295 291 289 289 288 286 283 279 275 270
301 300 300 300 303 307 306 304 303 301 300 298 294 291 292 295 296 297 296 297 298 301 300 292 297 305 301 294 291 294 295 294 292 289 287 284 279 274
303 301 300 303 307 310 310 308 306 308 309 305 300 298 297 295 295 290 291 293 296 300 298 300 301 312 307 294 298 302 301 298 297 295 293 289 284 279
306 305 304 308 310 312 313 307 305 308 306 304 304 303 302 301 301 299 295 288 288 284 289 301 295 297 290 294 303 301 299 299 302 300 296 293 288 283
306 306 307 311 313 314 312 308 309 310 305 305 304 303 305 305 304 302 297 289 279 278 282 286 283 285 289 291 297 299 302 303 301 299 298 297 293 286
305 306 309 311 315 313 309 311 312 308 306 305 303 302 303 302 301 301 300 297 292 284 279 276 276 280 281 285 288 295 302 305 302 307 308 305 298 290
311 310 311 311 311 308 310 311 310 305 306 301 301 301 302 302 302 304 305 308 306 303 294 283 281 282 286 287 288 291 298 300 308 313 313 309 304 297
317 311 310 314 316 317 316 315 313 311 309 305 303 303 304 305 305 307 304 304 301 303 309 311 304 294 284 282 285 287 298 307 312 316 318 316 313 311
318 309 312 314 315 316 316 315 314 312 310 308 304 302 302 304 305 306 305 303 302 303 306 311 315 317 315 295 255 280 301 311 316 319 321 322 320 321
316 312 312 310 310 309 308 307 307 308 308 304 301 300 301 301 302 303 305 305 304 305 306 309 312 316 320 323 306 286 307 315 320 323 325 327 324 327
319 312 309 308 306 305 305 304 304 305 305 303 301 300 299 299 300 301 302 304 305 306 308 311 314 317 314 303 298 302 306 314 324 326 327 326 323 324
315 310 306 304 302 301 301 301 300 300 300 301 299 298 298 299 298 299 300 302 304 306 309 311 310 310 304 293 299 309 315 321 322 326 331 332 336 339
311 308 305 302 300 299 299 299 299 298 299 298 298 298 298 297 296 298 299 302 304 304 306 308 310 315 314 309 314 317 323 328 329 328 337 348 347 343
309 306 303 301 299 297 297 297 297 296 296 296 296 296 297 298 297 296 298 300 302 307 313 315 319 322 318 313 315 321 328 335 339 342 344 346 349 352
Height
1481 1478 1476 1473 1469 1466 1462 1459 1454 1444 1437 1436 1434 1430 1426 1420 1415 1409 1404 1398 1393 1388 1383 1378 1374 1369 1365 1361 1358 1355 1352 1350 1348 1346 1345 1343 1343 1342
1477 1474 1471 1467 1464 1460 1457 1453 1449 1443 1433 1428 1426 1423 1418 1413 1408 1403 1397 1391 1385 1380 1375 1369 1364 1359 1355 1350 1346 1343 1340 1338 1336 1334 1332 1331 1330 1329
1472 1469 1465 1462 1458 1454 1451 1447 1443 1438 1428 1420 1419 1415 1410 1405 1400 1395 1389 1383 1377 1371 1365 1360 1354 1349 1344 1339 1335 1331 1328 1325 1323 1321 1319 1318 1316 1316
1467 1463 1460 1456 1452 1449 1445 1441 1437 1432 1425 1414 1410 1407 1403 1398 1393 1387 1381 1375 1369 1362 1356 1350 1344 1338 1333 1328 1324 1319 1316 1313 1310 1308 1306 1304 1303 1302
1461 1458 1454 1450 1446 1443 1439 1435 1430 1426 1420 1412 1404 1400 1395 1391 1385 1379 1374 1367 1361 1354 1347 1340 1334 1328 1322 1317 1312 1307 1303 1299 1296 1294 1292 1290 1289 1289
1456 1452 1448 1445 1441 1437 1433 1429 1425 1420 1415 1408 1400 1394 1389 1384 1379 1372 1364 1359 1352 1346 1338 1332 1326 1319 1312 1306 1300 1295 1290 1286 1283 1280 1278 1276 1275 1274
1450 1447 1442 1438 1434 1431 1427 1423 1419 1414 1409 1403 1396 1389 1383 1378 1373 1366 1358 1350 1344 1339 1330 1323 1318 1309 1302 1295 1289 1283 1279 1275 1271 1267 1265 1263 1262 1261
1445 1441 1437 1433 1429 1425 1421 1417 1414 1409 1403 1398 1391 1385 1378 1373 1367 1360 1353 1345 1335 1332 1325 1314 1309 1300 1293 1287 1280 1274 1268 1263 1259 1255 1252 1250 1248 1247
1439 1434 1431 1427 1423 1418 1414 1410 1407 1403 1399 1394 1386 1379 1373 1367 1361 1354 1347 1340 1332 1325 1318 1305 1300 1291 1284 1277 1271 1265 1258 1253 1248 1244 1240 1237 1234 1233
1433 1429 1425 1421 1417 1413 1408 1404 1400 1395 1391 1386 1380 1373 1367 1361 1356 1350 1342 1332 1324 1319 1315 1302 1292 1284 1275 1267 1260 1255 1249 1244 1238 1233 1229 1225 1222 1219
1428 1424 1420 1416 1412 1408 1403 1397 1392 1387 1383 1377 1372 1366 1360 1354 1349 1342 1335 1328 1318 1310 1307 1298 1287 1277 1265 1257 1252 1247 1242 1236 1230 1224 1218 1214 1210 1206
1423 1419 1415 1411 1407 1402 1398 1391 1385 1379 1374 1368 1363 1358 1353 1347 1342 1337 1331 1323 1314 1304 1297 1293 1283 1275 1259 1248 1246 1241 1234 1228 1221 1215 1209 1203 1198 1194
1418 1414 1410 1406 1401 1396 1391 1385 1379 1373 1367 1362 1356 1351 1346 1341 1336 1331 1325 1318 1310 1301 1294 1289 1279 1273 1267 1249 1237 1234 1228 1220 1213 1205 1199 1193 1187 1182
1413 1408 1404 1399 1394 1389 1383 1378 1373 1368 1362 1356 1351 1345 1339 1334 1329 1323 1318 1311 1304 1296 1288 1283 1276 1268 1261 1250 1238 1227 1222 1215 1207 1198 1190 1182 1176 1170
1408 1403 1398 1392 1387 1381 1377 1372 1367 1363 1357 1352 1346 1340 1335 1329 1322 1316 1309 1303 1297 1290 1283 1277 1271 1264 1257 1248 1237 1226 1217 1208 1201 1193 1184 1175 1167 1160
1402 1397 1392 1386 1381 1376 1372 1367 1363 1359 1353 1348 1341 1335 1329 1323 1317 1311 1303 1296 1288 1282 1278 1272 1266 1259 1252 1243 1235 1225 1217 1209 1198 1189 1179 1169 1161 1153
1397 1392 1387 1382 1377 1372 1368 1363 1359 1354 1349 1343 1337 1331 1325 1319 1313 1307 1300 1293 1285 1277 1270 1265 1260 1254 1247 1240 1230 1223 1215 1205 1196 1186 1176 1165 1156 1149
1392 1387 1383 1378 1373 1368 1364 1359 1354 1350 1345 1339 1333 1328 1321 1315 1308 1302 1297 1290 1282 1275 1268 1261 1254 1247 1240 1234 1229 1221 1213 1204 1194 1184 1175 1165 1154 1146
1387 1383 1379 1375 1370 1365 1361 1356 1350 1346 1341 1335 1330 1324 1318 1312 1305 1299 1293 1287 1280 1273 1266 1260 1254 1248 1241 1232 1225 1221 1212 1202 1193 1183 1174 1165 1155 1146
1384 1380 1376 1372 1367 1363 1358 1353 1347 1342 1337 1332 1326 1321 1315 1308 1302 1296 1290 1284 1277 1271 1264 1259 1254 1248 1242 1234 1225 1216 1211 1203 1193 1184 1174 1165 1156 1148
1381 1377 1373 1369 1364 1360 1355 1350 1345 1339 1334 1328 1323 1317 1311 1305 1299 1293 1287 1281 1276 1269 1263 1257 1251 1246 1240 1233 1225 1217 1210 1203 1195 1187 1177 1168 1158 1150
1378 1374 1370 1366 1362 1357 1352 1347 1341 1336 1331 1325 1320 1314 1308 1302 1296 1291 1285 1279 1274 1268 1262 1255 1249 1244 1238 1232 1225 1217 1209 1202 1195 1188 1181 1174 1167 1157
1376 1371 1367 1363 1359 1354 1349 1343 1338 1333 1328 1322 1317 1311 1305 1300 1294 1288 1283 1278 1272 1267 1261 1255 1249 1243 1238 1232 1226 1218 1211 1203 1195 1188 1182 1175 1168 1162